Find Starlink 30333

NORAD ID: 57702 Int'l Des: 2023-129 Owner: SPXS Country: US Constellation: starlink operational
LEOCIRCULAR

Live Position

Loading 3D Globe...

About Starlink 30333

Description loading...

Upcoming Passes

Passes for default location (London). Set your location on the main map for personalized predictions.

Altitude History

Loading altitude history...

Two-Line Element Set

1 57702U 23129E 26127.51825398 .00000413 00000-0 24548-4 0 9992
2 57702 43.0016 145.3330 0001147 267.2753 92.7967 15.27577128149684
Epoch: May 7, 2026 • Age: 16 hours

Current Status

Altitude 486.1 km
Velocity 7.63 km/s
Sub-Earth Point 39.37°N, 89.83°W
Launch Date Aug 27, 2023
Age 2.6 years
Type internet

Technical Details

Classification Payload
Mass 730.00 kg
Dry Mass 700.00 kg
Total Mass 730.00 kg
Length 0.30 m
Diameter 4.10 m
Span 29.00 m
Shape Box + pan
Manufacturer SPXS
Bus Type Starlink V2M
Phase Status In Orbit
Owner/State SPXS/US

Most Searched